DECAYED
Showing default

LOGSATS, 62689 (Decayed)

Orbit data source: Space-Track

LOGSATS, 62689 was a payload satellite owned by Patriot Info (TH) in LEO that was launched on Tue, 14 Jan 2025 UTC via an FALCON 9 launch vehicle from the Air Force Western Test Range (AFWTR). Payload-class satellites include a variety of spacecraft equipped with specific instruments for various scientific and technological missions. These include communications satellites like Starlink; space stations such as the ISS; scientific satellites like the Hubble; Earth observation satellites from companies like Planet Labs, Umbra, and HawkEye 360; GPS; miniature CubeSats for education and research; and military/defense satellites.

Not visible in the next 10 days
Identifier
62689, 2025-009CJ
Orbit
Decayed
Country
Flag of THTH / THAI
Related business
None
Manufacturer
Patriot Info
Mission
Decayed Commercial Communications
Bus & Motor
CUBESAT 3U, Unknown motor
Mass
5 kg wet, 5 kg dry
Launch date (UTC)
2025-01-14 (1 year ago)
Launch vehicle
FALCON 9
Launch site
Air Force Western Test Range (AFWTR)
Object type
Payload
Rocket body
Debris
Shape & HBR
Box + 2 Pan, 0.2 m
Radar Cross Section
0.035 m², Small (<0.1 m²)

Expand to show TLE details & history
Last TLE update: 4 weeks ago

TLE from 4 weeks ago
0 LOGSATS
1 62689U 25009CJ  26098.74662697  .12544300  24838-5  19322-2 0  9997
2 62689  97.3596 191.3193 0013238 279.5788  80.4012 16.33862094 68979
Epoch: 2026-04-08T17:55Z
TLE epoch observation values (Epoch: 2026-04-08T17:55:08.570Z)
Latitude
-0.00003°
Longitude
85.52903°
Altitude
183.988 km
Speed
7.797 km/s
True Right ascension
12h 45m 16s
True Declination
0° 00' 00"
Sunlit
Object was in full shadow at epoch
Visualization orbit readout
Latitude
Unknown
Longitude
Unknown
Altitude
Unknown
Speed
Unknown
Apparent Right ascension
Unknown
Apparent Declination
Unknown
Sunlit
N/A
Visualization observer readout
Local Sidereal Time
17:26:22
Azimuth
Unknown
Elevation
Unknown
Doppler factor
Unknown
Orbital elements
Apogee altitude
187.675 km
Perigee altitude
170.315 km
Semi-major axis
6,557.132 km
Eccentricity
0.00132
Inclination
97.3596°
RAAN
191.3193°
Arg. of periapsis
279.5788°
True anomaly
80.55081°
Mean anomaly
80.4012°
Eccentric anomaly
80.476°
Mean motion
4.08764 °/min
Orbital period
88.07 mins
BSTAR
0.0019322
Loading maneuver chart data...
Computing Atmospheric mass density...
Loading historical data...
Loading historical data...
Loading historical data...
Loading historical data...
Loading historical data...
Loading historical data...
Loading historical data...

Documentation

Showing up to 5 results
|